This is the latest recevied weather packets stored in our database for station/object SA3VCC-15. If no packets are shown the sender has not sent any weather packets the latest 10 day(s).
| Time | Temp. | Humidity | Pressure | Rain* | Wind** | Luminosity | Snow |
|---|---|---|---|---|---|---|---|
| 1777217333 | 11.11° C | 27% | 1013.5 hPa | - | - | - | - |
| 1777216073 | 10.56° C | 27% | 1013.5 hPa | - | - | - | - |
| 1777214813 | 11.67° C | 26% | 1013.3 hPa | - | - | - | - |
| 1777213553 | 13.33° C | 25% | 1013.2 hPa | - | - | - | - |
| 1777212293 | 10.56° C | 29% | 1013.2 hPa | - | - | - | - |
| 1777211033 | 11.11° C | 31% | 1013.1 hPa | - | - | - | - |
| 1777209773 | 10° C | 31% | 1013 hPa | - | - | - | - |
| 1777208513 | 10° C | 28% | 1013 hPa | - | - | - | - |
| 1777207253 | 10° C | 28% | 1012.8 hPa | - | - | - | - |
| 1777205993 | 10° C | 28% | 1012.9 hPa | - | - | - | - |
| 1777203473 | 9.44° C | 33% | 1012.8 hPa | - | - | - | - |
| 1777202213 | 10.56° C | 30% | 1012.5 hPa | - | - | - | - |
| 1777200953 | 10.56° C | 33% | 1012.5 hPa | - | - | - | - |
| 1777199693 | 12.22° C | 29% | 1012.3 hPa | - | - | - | - |
| 1777198433 | 12.22° C | 28% | 1012.1 hPa | - | - | - | - |
| 1777197173 | 12.22° C | 33% | 1012.2 hPa | - | - | - | - |
| 1777195913 | 10° C | 34% | 1012.2 hPa | - | - | - | - |
| 1777194653 | 10° C | 34% | 1012.1 hPa | - | - | - | - |
| 1777193393 | 10° C | 39% | 1012.1 hPa | - | - | - | - |
| 1777192133 | 7.78° C | 40% | 1012.1 hPa | - | - | - | - |
| 1777190873 | 7.78° C | 42% | 1012 hPa | - | - | - | - |
| 1777188352 | 6.67° C | 44% | 1012 hPa | - | - | - | - |
| 1777187092 | 7.78° C | 45% | 1012 hPa | - | - | - | - |
| 1777185833 | 6.11° C | 49% | 1011.9 hPa | - | - | - | - |
| 1777184572 | 4.44° C | 50% | 1011.7 hPa | - | - | - | - |
* Rain since midnight (hover to see other rain measurements)
** Current wind speed in m/s (hover to see current wind gust speed)